Flag for Brazil Weather past 2 weeks in Porto Alegre, Rio Grande do Sul, Brazil

Now
63 °F

Clear.


Feels Like: 63 °F
Forecast: 56 / 64 °F
Wind: 15 mph from Southeast

Location: Porto Alegre Aero-Porto

Current Time: Sep 2, 2015 at 9:03:45 PM

Latest Report: Sep 2, 2015 at 8:00 PM


Visibility: 10 mi

Pressure: 30.09 "Hg

Humidity: 64%

Dew point: 50 °F

Location of Porto AlegreLocation

Historic Weather in Porto Alegre — Graph

°F

Porto Alegre temperature yesterday

Maximum temperature yesterday: 70 °F (at 12:00 AM)
Minimum temperature yesterday: 59 °F (at 8:00 PM)
Average temperature yesterday: 63 °F

Past Weeks' High & Low Weather Summary

 TemperatureHumidityPressure
High88 °F (Aug 31, 2:00 PM)100% (Aug 22, 8:00 PM)30.30 "Hg (Aug 22, 8:00 PM)
Low45 °F (Aug 26, 5:00 PM)29% (Aug 27, 4:00 PM)29.77 "Hg (Aug 22, 4:00 PM)
Average64 °F72%30.05 "Hg
* Reported Aug 18 8:00 PM — Sep 2 8:00 PM, Porto Alegre, Weather by CustomWeather, © 2015

Note: Actual official high and low records may vary slightly from our data, if they occured in-between our weather recording intervals... More about our weather records

Advertising

Porto Alegre weather history for previous 24 hours

 ConditionsComfort  
Time TempWeatherWind HumidityBarometerVisibility
8:00 PM
Wed, Sep 2
63 °FClear.15 mph64%30.09 "Hg10 mi
7:00 PM64 °FClear.14 mph64%30.09 "Hg10 mi
6:00 PM66 °FClear.14 mph60%30.07 "Hg10 mi
5:00 PM68 °FSunny.14 mph53%30.07 "Hg10 mi
4:00 PM70 °FSunny.15 mph46%30.07 "Hg10 mi
3:00 PM70 °FScattered clouds.12 mph46%30.09 "HgN/A
2:00 PM72 °FSunny.12 mph44%30.09 "Hg10 mi
1:00 PM70 °FSunny.15 mph46%30.15 "Hg10 mi
12:00 PM68 °FSunny.16 mph46%30.18 "Hg10 mi
11:00 AM68 °FSunny.16 mph46%30.21 "Hg10 mi
10:00 AM64 °FSunny.17 mph52%30.24 "Hg10 mi
9:00 AM63 °FSunny.12 mph56%30.24 "Hg10 mi
8:00 AM59 °FSunny.12 mph59%30.24 "Hg10 mi
7:00 AM52 °FSunny.6 mph72%30.24 "Hg10 mi
6:00 AM54 °FSunny.5 mph72%30.24 "Hg10 mi
5:00 AM54 °FPassing clouds.6 mph72%30.21 "HgN/A
4:00 AM55 °FPassing clouds.7 mph63%30.24 "HgN/A
3:00 AM55 °FPassing clouds.7 mph63%30.24 "HgN/A
2:00 AM57 °FPassing clouds.7 mph55%30.27 "HgN/A
1:00 AM57 °FPassing clouds.8 mph59%30.27 "HgN/A
12:00 AM59 °FPassing clouds.10 mph55%30.27 "HgN/A
11:00 PM
Tue, Sep 1
59 °FPassing clouds.10 mph59%30.30 "HgN/A
10:00 PM59 °FPassing clouds.10 mph59%30.30 "HgN/A
9:00 PM59 °FPassing clouds.10 mph63%30.30 "HgN/A
Weather by CustomWeather, © 2015

See weather overviewHow to use our weather pages